User: anonymous   Login
Location: Montr�al
(45.5000°N, 73.5830°W)
Time: 02:04:20
(UTC-04:00)
Language:

Cosmos 1151 Rocket - Orbit

View from above orbital plane
View from above orbital plane
View from above satellite
View from above satellite

Ground track
Ground track

The orbit data is extracted from the following two-line orbital elements,

1 11672U 80005B   15184.71736601  .00000226  00000-0  22039-4 0  9990
2 11672 082.5145 033.6223 0017235 163.5247 196.6535 14.87619325917164
Epoch (UTC): 03 July 2015 17:13:00
Eccentricity: 0.0017235
inclination: 82.5145°
perigee height: 593 km
apogee height: 617 km
right ascension of ascending node: 33.6223°
argument of perigee: 163.5247°
revolutions per day: 14.87619325
mean anomaly at epoch: 196.6535°
orbit number at epoch: 91716

The dashed part of the orbit path shows where the satellite is in the earth's shadow,  

DLR